Weather History for KPIL - September, 2013

Change the Weather History Date:

Saturday, September 21, 2013

  Actual Average Record
Temperature  
Mean Temperature 77 °F -  
Max Temperature 79 °F - - ()
Min Temperature 75 °F - - ()
Cooling Degree Days 12    
Growing Degree Days 27 (Base 50)    
Moisture  
Dew Point 74 °F    
Average Humidity 92    
Maximum Humidity 100    
Minimum Humidity 78    
Precipitation  
Precipitation 0.31 in - - ()
Sea Level Pressure  
Sea Level Pressure 29.72 in    
Wind  
Wind Speed 11 mph (NNW)    
Max Wind Speed 23 mph    
Max Gust Speed 31 mph    
Visibility 7 miles    
Events Rain    
T = Trace of Precipitation, MM = Missing Value Source: NWS Daily Summary

Daily Weather History Graph

Daily Weather History Graph

Search for Another Location

Airport or City:

Trip Planner

Search our weather history database for the weather conditions in past years. The results will help you decide how hot, cold, wet, or windy it might be!

Date:

Astronomy

Sep. 21, 2013 Rise Set
Actual Time 7:17 AM CDT 7:26 PM CDT
Civil Twilight 6:54 AM CDT 7:49 PM CDT
Nautical Twilight 6:27 AM CDT 8:16 PM CDT
Astronomical Twilight 6:00 AM CDT 8:43 PM CDT
Moon 8:57 PM CDT (9/21) 9:20 AM CDT (9/21)
Length of Visible Light 12h 55m
Length of Day
12h 08m
Waning Gibbous, 94% of the Moon is Illuminated
Sep 21
Waning Gibbous
Sep 26
Last Quarter
Oct 4
New
Oct 11
First Quarter
Oct 18
Full

Hourly Weather History & Observations

Time (CDT) Temp. Dew Point Humidity Pressure Visibility Wind Dir Wind Speed Gust Speed Precip Events Conditions
12:53 AM 79.0 °F 77.0 °F 94% 29.70 in 8.0 mi Calm Calm - 0.00 in   Mostly Cloudy
1:53 AM 79.0 °F 77.0 °F 94% 29.70 in 8.0 mi NNW 4.6 mph - N/A   Overcast
2:51 AM 78.8 °F 77.0 °F 94% 29.68 in 8.0 mi ENE 6.9 mph - N/A   Mostly Cloudy
2:53 AM 79.0 °F 77.0 °F 94% 29.68 in 8.0 mi ENE 6.9 mph - N/A   Mostly Cloudy
3:19 AM 78.8 °F 77.0 °F 94% 29.68 in 5.0 mi NE 4.6 mph - 0.01 in Rain Light Rain
3:27 AM 78.8 °F 77.0 °F 94% 29.67 in 3.0 mi NNE 4.6 mph - 0.04 in Rain Rain
3:53 AM 78.1 °F 78.1 °F 100% 29.68 in 6.0 mi North 5.8 mph - 0.05 in Rain Light Rain
4:38 AM 78.8 °F 78.8 °F 100% 29.67 in 5.0 mi NNW 10.4 mph - 0.07 in Rain Rain
4:45 AM 78.8 °F 78.8 °F 100% 29.67 in 3.0 mi North 9.2 mph - 0.15 in Rain Heavy Rain
4:47 AM 78.8 °F 78.8 °F 100% 29.66 in 3.0 mi NNW 9.2 mph - 0.15 in Rain Heavy Rain
4:53 AM 77.0 °F 77.0 °F 100% 29.66 in 2.5 mi NNW 11.5 mph - 0.22 in Rain Heavy Rain
5:00 AM 77.0 °F 77.0 °F 100% 29.66 in 3.0 mi NNW 10.4 mph - 0.03 in Rain Light Rain
5:23 AM 77.0 °F 77.0 °F 100% 29.67 in 10.0 mi NNW 13.8 mph - 0.04 in Rain Light Rain
5:31 AM 78.8 °F 78.8 °F 100% 29.67 in 8.0 mi NNW 15.0 mph - 0.04 in   Overcast
5:40 AM 78.8 °F 78.8 °F 100% 29.68 in 9.0 mi NNW 13.8 mph - 0.04 in   Overcast
5:47 AM 78.8 °F 78.8 °F 100% 29.68 in 8.0 mi NNW 13.8 mph - 0.04 in   Overcast
5:53 AM 78.1 °F 77.0 °F 96% 29.68 in 9.0 mi NW 18.4 mph 23.0 mph 0.04 in   Overcast
6:53 AM 75.9 °F 75.0 °F 97% 29.69 in 9.0 mi NNW 19.6 mph - 0.00 in   Overcast
7:40 AM 75.2 °F 75.2 °F 100% 29.70 in 7.0 mi NNW 20.7 mph - 0.00 in Rain Light Rain
7:53 AM 75.9 °F 75.0 °F 97% 29.70 in 4.0 mi NNW 19.6 mph - 0.00 in Rain Light Rain
8:03 AM 75.2 °F 75.2 °F 100% 29.70 in 5.0 mi NNW 18.4 mph 24.2 mph 0.00 in Rain Light Rain
8:53 AM 75.0 °F 73.9 °F 96% 29.73 in 6.0 mi NNW 19.6 mph 27.6 mph 0.00 in   Overcast
9:53 AM 75.0 °F 73.0 °F 94% 29.76 in 8.0 mi NNW 18.4 mph 26.5 mph N/A   Overcast
10:18 AM 77.0 °F 73.4 °F 89% 29.76 in 8.0 mi NNW 19.6 mph - N/A   Overcast
10:53 AM 77.0 °F 73.0 °F 88% 29.76 in 8.0 mi NNW 23.0 mph 27.6 mph N/A   Overcast
11:53 AM 77.0 °F 73.0 °F 88% 29.76 in 7.0 mi NNW 18.4 mph 29.9 mph N/A   Overcast
12:53 PM 78.1 °F 72.0 °F 81% 29.76 in 8.0 mi North 23.0 mph - 0.00 in   Overcast
1:15 PM 78.8 °F 71.6 °F 78% 29.76 in 8.0 mi NNW 23.0 mph 29.9 mph N/A   Overcast
1:45 PM 77.0 °F 71.6 °F 83% 29.75 in 8.0 mi NNW 23.0 mph 29.9 mph N/A   Overcast
1:53 PM 77.0 °F 72.0 °F 84% 29.75 in 8.0 mi NNW 20.7 mph 31.1 mph N/A   Overcast
2:53 PM 77.0 °F 72.0 °F 84% 29.75 in 7.0 mi NNW 19.6 mph - N/A   Overcast
3:53 PM 75.0 °F 73.0 °F 94% 29.75 in 5.0 mi NNW 20.7 mph 27.6 mph 0.00 in Rain Light Rain
4:53 PM 75.9 °F 72.0 °F 87% 29.74 in 8.0 mi NNW 23.0 mph 27.6 mph 0.00 in   Overcast
5:00 PM 75.2 °F 71.6 °F 89% 29.74 in 8.0 mi NNW 20.7 mph 27.6 mph N/A   Overcast
5:53 PM 75.0 °F 70.0 °F 84% 29.75 in 7.0 mi NNW 23.0 mph 28.8 mph N/A   Overcast
6:04 PM 75.2 °F 69.8 °F 83% 29.75 in 8.0 mi NNW 20.7 mph 27.6 mph N/A   Overcast
6:53 PM 75.0 °F 70.0 °F 84% 29.75 in 7.0 mi NNW 20.7 mph 28.8 mph N/A   Overcast
7:53 PM 75.0 °F 69.1 °F 82% 29.75 in 8.0 mi NNW 17.3 mph - N/A   Overcast
8:53 PM 75.0 °F 69.1 °F 82% 29.76 in 9.0 mi NNW 15.0 mph - N/A   Overcast
9:53 PM 75.0 °F 69.1 °F 82% 29.77 in 9.0 mi NNW 11.5 mph - N/A   Overcast
10:53 PM 75.0 °F 69.1 °F 82% 29.78 in 9.0 mi NNW 12.7 mph - N/A   Overcast
11:53 PM 75.0 °F 69.1 °F 82% 29.79 in 9.0 mi North 9.2 mph - N/A   Overcast